Weather reports worldwide

Advertisment
Grenoble/St.Geoirs, France (7486): temperature & dewpoint: 12.09.2019 06:00:00 - 18.09.2019 06:00:00 (CEST)Grenoble/St.Geoirs, France (7486): temperature 5cm: 12.09.2019 06:00:00 - 18.09.2019 06:00:00 (CEST)Grenoble/St.Geoirs, France (7486): temperature -20cm & temperature -100cm: 12.09.2019 06:00:00 - 18.09.2019 06:00:00 (CEST)Grenoble/St.Geoirs, France (7486): wind speed & gusts: 12.09.2019 06:00:00 - 18.09.2019 06:00:00 (CEST)Grenoble/St.Geoirs, France (7486): wind direction: 12.09.2019 06:00:00 - 18.09.2019 06:00:00 (CEST)Grenoble/St.Geoirs, France (7486): reduced air pressure: 12.09.2019 06:00:00 - 18.09.2019 06:00:00 (CEST)Grenoble/St.Geoirs, France (7486): visibility: 12.09.2019 06:00:00 - 18.09.2019 06:00:00 (CEST)Grenoble/St.Geoirs, France (7486): sunshine duration: 12.09.2019 06:00:00 - 18.09.2019 06:00:00 (CEST)Grenoble/St.Geoirs, France (7486): precipitation: 12.09.2019 06:00:00 - 18.09.2019 06:00:00 (CEST)
Date & Time tt [°C] td [°C] tt 5cm [°C] tt -20cm [°C] tt -100cm [°C] ff [km/h] ff [kn] fx [km/h] fx [kn] dd ppp [hPa] vv [km] sd [min] rr [mm]
18.09.2019 06:00:00 - - - - - - - - - - - - - -
18.09.2019 05:00:00 13,4 10,6 10,2 20,2 18,3 7 4 14 8 NW 1017,9 34 0 0,0
18.09.2019 04:00:00 13,9 11,6 9,2 20,3 18,3 11 6 16 8 NE 1017,5 28 0 0,0
18.09.2019 03:00:00 13,5 11,4 9,2 20,5 18,3 3 2 10 5 E 1017,9 26 0 0,0
18.09.2019 02:00:00 14,3 10,7 10,1 20,6 18,2 2 1 7 4 W 1017,9 30 0 0,0
18.09.2019 01:00:00 16,1 10,8 11,6 20,6 18,3 4 2 11 6 SW 1017,4 31 0 0,0
18.09.2019 00:00:00 17,8 11,1 13,0 20,7 18,2 6 4 15 8 WSW 1016,9 34 0 0,0
17.09.2019 23:00:00 18,2 10,3 14,5 20,7 18,3 0 0 14 7 N 1016,7 36 0 0,0
17.09.2019 22:00:00 19,2 10,2 14,2 20,7 18,2 5 3 13 7 W 1016,6 39 0 0,0
17.09.2019 21:00:00 21,9 9,4 18,2 20,6 18,3 3 2 31 17 WNW 1015,9 42 0 0,0
17.09.2019 20:00:00 23,4 5,8 19,9 20,4 18,2 9 5 26 14 SE 1015,1 46 23 0,0
17.09.2019 19:00:00 25,6 4,7 26,4 20,3 18,2 21 11 34 18 N 1014,7 20 47 0,0
17.09.2019 18:00:00 27,2 5,5 30,1 20,1 18,2 18 10 33 18 N 1014,7 37 60 0,0
17.09.2019 17:00:00 28,0 6,7 32,8 19,9 18,2 17 9 36 19 NNW 1014,9 30 60 0,0
17.09.2019 16:00:00 28,2 8,0 33,9 19,7 18,2 19 10 35 19 NNW 1015,2 16 60 0,0
17.09.2019 15:00:00 28,2 9,0 34,3 19,6 18,2 18 10 28 15 NNW 1015,6 16 60 0,0
17.09.2019 14:00:00 27,7 7,0 32,9 19,5 18,2 16 9 38 20 NNW 1016,1 21 60 0,0
17.09.2019 13:00:00 26,9 12,9 31,5 19,5 18,2 16 9 25 14 NNW 1016,5 27 60 0,0
17.09.2019 12:00:00 25,3 13,5 29,1 19,6 18,2 5 3 12 6 SW 1017,2 29 60 0,0
17.09.2019 11:00:00 22,5 13,0 25,3 19,7 18,2 4 2 11 6 W 1018,0 30 60 0,0
17.09.2019 10:00:00 20,0 12,5 21,2 19,8 18,2 3 2 10 6 SW 1018,3 27 60 0,0
17.09.2019 09:00:00 17,1 13,0 14,0 19,9 18,2 2 1 6 4 SSE 1018,8 25 60 0,0
17.09.2019 08:00:00 13,7 12,3 10,0 20,1 18,2 6 4 8 4 SE 1019,1 17 20 0,0
17.09.2019 07:00:00 13,1 11,2 10,3 20,2 18,2 5 3 9 5 E 1018,9 16 0 0,0
17.09.2019 06:00:00 12,9 11,6 10,8 20,3 18,2 8 5 10 5 ESE 1018,8 18 0 0,0
17.09.2019 05:00:00 14,2 12,2 11,1 20,4 18,2 6 3 10 5 E 1018,8 24 0 0,0
17.09.2019 04:00:00 14,7 12,4 11,5 20,5 18,1 4 2 8 4 NE 1018,5 21 0 0,0
17.09.2019 03:00:00 15,5 12,8 12,1 20,6 18,1 8 4 10 5 E 1018,5 25 0 0,0
17.09.2019 02:00:00 16,6 12,9 13,1 20,7 18,2 4 2 13 7 ENE 1018,4 23 0 0,0
17.09.2019 01:00:00 16,4 12,4 13,1 20,8 18,1 7 4 13 7 ENE 1018,4 30 0 0,0
17.09.2019 00:00:00 16,6 13,1 14,2 20,8 18,1 11 6 15 8 E 1018,4 29 0 0,0
16.09.2019 23:00:00 18,0 12,9 14,8 20,8 18,1 8 4 13 7 E 1018,2 27 0 0,0
16.09.2019 22:00:00 18,4 13,3 15,0 20,7 18,1 9 5 11 6 ESE 1018,3 29 0 0,0
16.09.2019 21:00:00 21,9 13,8 17,6 20,6 18,1 7 4 11 6 SE 1017,4 27 0 0,0
16.09.2019 20:00:00 24,3 13,5 20,8 20,5 18,1 8 4 14 8 N 1016,6 36 18 0,0
16.09.2019 19:00:00 28,9 12,3 29,5 20,2 18,1 9 5 18 10 N 1016,0 23 45 0,0
16.09.2019 18:00:00 30,3 12,2 34,1 20,0 18,1 9 5 29 16 NNE 1015,8 41 60 0,0
16.09.2019 17:00:00 30,7 11,1 36,3 19,8 18,1 11 6 24 13 NNE 1016,2 50 60 0,0
16.09.2019 16:00:00 30,5 11,9 36,1 19,6 18,1 12 6 26 14 N 1016,7 50 60 0,0
16.09.2019 15:00:00 30,4 12,8 36,1 19,4 18,1 15 8 25 13 NNW 1017,2 36 60 0,0
16.09.2019 14:00:00 29,5 12,4 35,7 19,3 18,1 8 5 19 11 WNW 1018,0 36 60 0,0
16.09.2019 13:00:00 28,8 11,8 33,9 19,3 18,1 5 3 10 6 W 1018,8 20 60 0,0
16.09.2019 12:00:00 26,7 12,7 30,0 19,3 18,1 4 2 15 8 E 1019,5 23 60 0,0
16.09.2019 11:00:00 24,6 14,1 25,5 19,4 18,1 7 4 16 9 E 1020,1 25 60 0,0
16.09.2019 10:00:00 21,7 14,8 21,9 19,5 18,0 10 5 15 8 E 1020,5 10 60 0,0
16.09.2019 09:00:00 19,3 14,8 16,9 19,7 18,1 6 3 17 9 E 1020,5 12 60 0,0
16.09.2019 08:00:00 16,8 14,1 14,1 19,8 18,1 13 7 21 12 E 1020,6 22 21 0,0
16.09.2019 07:00:00 15,0 13,5 12,3 19,9 18,0 16 9 22 12 E 1020,7 20 0 0,0
16.09.2019 06:00:00 14,0 12,0 11,6 20,0 18,0 13 7 15 8 E 1021,2 21 0 0,0
16.09.2019 05:00:00 13,9 11,4 12,2 20,1 18,0 11 6 14 8 E 1021,7 26 0 0,0
16.09.2019 04:00:00 14,6 11,9 12,9 20,2 18,0 14 7 20 11 E 1021,6 27 0 0,0
16.09.2019 03:00:00 15,5 12,1 13,0 20,3 18,0 12 6 14 7 E 1021,9 27 0 0,0
16.09.2019 02:00:00 15,4 12,0 13,0 20,4 18,0 14 8 17 9 E 1022,1 26 0 0,0
16.09.2019 01:00:00 15,9 11,7 14,0 20,4 18,0 9 5 15 8 ENE 1022,1 30 0 0,0
16.09.2019 00:00:00 17,8 12,0 14,6 20,5 18,0 9 5 13 7 E 1021,8 31 0 0,0
15.09.2019 23:00:00 20,2 11,7 16,2 20,4 18,0 4 2 15 8 E 1021,8 31 0 0,0
15.09.2019 22:00:00 20,9 12,1 16,8 20,4 18,0 5 3 31 17 E 1021,7 32 0 0,0
15.09.2019 21:00:00 21,3 13,2 17,4 20,2 18,0 5 3 9 5 NE 1021,6 33 0 0,0
15.09.2019 20:00:00 25,8 12,6 20,8 20,1 18,0 6 3 10 6 SSE 1020,4 38 26 0,0
15.09.2019 19:00:00 28,9 11,9 29,7 19,8 18,0 8 4 16 9 SW 1019,7 37 49 0,0
15.09.2019 18:00:00 30,4 10,9 33,3 19,6 18,0 8 4 17 9 WSW 1019,5 38 60 0,0
15.09.2019 17:00:00 31,2 11,6 35,6 19,4 18,0 6 3 19 10 SE 1019,7 17 60 0,0
15.09.2019 16:00:00 30,2 12,6 36,6 19,2 18,0 8 5 24 13 NW 1020,5 18 60 0,0
15.09.2019 15:00:00 30,2 13,0 36,5 19,0 18,0 7 4 21 11 W 1021,2 40 60 0,0
15.09.2019 14:00:00 29,8 13,1 34,1 18,9 18,0 5 3 21 11 NNW 1022,1 21 60 0,0
15.09.2019 13:00:00 29,1 13,7 32,4 18,9 18,0 4 2 21 11 E 1022,7 53 60 0,0
15.09.2019 12:00:00 27,1 14,1 29,1 18,9 18,0 11 6 22 12 ENE 1023,6 36 60 0,0
15.09.2019 11:00:00 24,6 15,0 25,1 19,0 18,0 16 9 27 15 ENE 1024,3 34 60 0,0
15.09.2019 10:00:00 22,3 14,9 20,4 19,1 18,0 20 11 27 15 E 1024,7 27 60 0,0
15.09.2019 09:00:00 18,8 15,7 15,4 19,2 18,0 18 10 22 12 E 1025,5 27 60 0,0
15.09.2019 08:00:00 14,9 13,6 12,9 19,3 17,9 9 5 20 11 ENE 1026,2 15 22 0,0
15.09.2019 07:00:00 14,5 13,2 12,4 19,4 17,9 13 7 18 10 E 1025,8 13 0 0,0
15.09.2019 06:00:00 14,7 13,2 13,2 19,5 18,0 13 7 19 10 E 1025,4 18 0 0,0
15.09.2019 05:00:00 15,3 14,2 12,7 19,6 18,0 14 7 18 10 E 1025,7 16 0 0,0
15.09.2019 04:00:00 14,5 12,5 12,9 19,7 17,9 12 7 15 8 E 1025,8 23 0 0,0
15.09.2019 03:00:00 15,0 13,2 13,6 19,8 18,0 11 6 15 8 ENE 1026,0 24 0 0,0
15.09.2019 02:00:00 15,4 13,6 14,1 19,8 18,0 14 8 16 8 E 1026,3 22 0 0,0
15.09.2019 01:00:00 16,5 14,1 13,9 19,9 17,9 12 7 14 8 E 1025,9 25 0 0,0
15.09.2019 00:00:00 17,0 14,5 14,0 19,9 18,0 8 5 11 6 ENE 1026,2 27 0 0,0
14.09.2019 23:00:00 17,4 14,7 14,8 19,8 17,9 8 4 11 6 E 1026,0 20 0 0,0
14.09.2019 22:00:00 19,7 15,3 15,9 19,8 17,9 10 5 11 6 ESE 1025,6 21 0 0,0
14.09.2019 21:00:00 20,2 15,4 17,3 19,7 18,0 8 4 12 7 E 1025,4 22 0 0,0
14.09.2019 20:00:00 23,0 15,3 17,8 19,5 17,9 8 4 13 7 SE 1024,7 35 0 0,0
14.09.2019 19:00:00 26,2 15,0 25,4 19,2 17,9 4 2 13 7 NNE 1023,9 40 18 0,0
14.09.2019 18:00:00 27,6 13,9 29,8 19,0 17,9 10 6 19 10 N 1023,5 32 37 0,0
14.09.2019 17:00:00 28,6 14,1 33,3 18,8 17,9 7 4 16 9 N 1023,6 45 55 0,0
14.09.2019 16:00:00 29,0 13,2 32,9 18,5 17,9 8 4 17 9 WSW 1024,3 36 57 0,0
14.09.2019 15:00:00 28,3 12,6 36,1 18,3 17,9 11 6 21 12 WNW 1024,8 17 60 0,0
14.09.2019 14:00:00 27,4 13,7 33,7 18,3 17,9 7 4 18 10 NNE 1025,5 15 60 0,0
14.09.2019 13:00:00 26,2 14,3 30,8 18,2 17,9 5 3 18 10 SE 1025,9 19 60 0,0
14.09.2019 12:00:00 25,3 14,1 27,9 18,2 17,9 7 4 19 11 ESE 1026,6 20 60 0,0
14.09.2019 11:00:00 23,2 13,7 24,9 18,3 17,9 11 6 22 12 ENE 1027,5 16 60 0,0
14.09.2019 10:00:00 21,2 14,4 20,3 18,4 17,9 6 4 15 8 E 1028,3 20 60 0,0
14.09.2019 09:00:00 16,3 13,8 13,2 18,6 17,9 4 2 8 5 E 1028,9 22 60 0,0
14.09.2019 08:00:00 12,6 12,1 8,5 18,7 17,9 8 4 10 5 ESE 1029,0 12 23 0,0
14.09.2019 07:00:00 11,2 10,4 8,2 18,8 17,9 6 4 11 6 E 1029,2 10 0 0,0
14.09.2019 06:00:00 11,8 11,3 7,8 18,9 17,9 8 5 12 6 E 1028,7 20 0 0,0
14.09.2019 05:00:00 12,0 10,9 7,8 19,1 18,0 4 2 10 5 ESE 1028,7 10 0 0,0
14.09.2019 04:00:00 12,0 11,1 9,1 19,1 17,9 7 4 11 6 E 1028,7 18 0 0,0
14.09.2019 03:00:00 12,7 11,6 9,0 19,3 17,9 7 4 11 6 E 1028,9 26 0 0,0
14.09.2019 02:00:00 13,4 11,8 10,0 19,3 17,9 7 4 9 5 E 1029,0 21 0 0,0
14.09.2019 01:00:00 13,8 11,8 10,0 19,3 17,9 5 3 8 4 E 1028,6 22 0 0,0
14.09.2019 00:00:00 15,2 12,1 10,8 19,4 17,9 4 2 12 7 ESE 1028,6 24 0 0,0
13.09.2019 23:00:00 15,4 12,2 10,9 19,3 17,9 7 4 13 7 ESE 1029,0 30 0 0,0
13.09.2019 22:00:00 17,9 12,3 13,8 19,3 17,9 6 3 17 9 E 1028,7 30 0 0,0
13.09.2019 21:00:00 20,0 12,0 14,9 19,1 17,9 6 3 18 10 ESE 1028,3 36 0 0,0
13.09.2019 20:00:00 23,6 11,9 21,1 18,9 17,9 10 6 16 9 N 1027,5 38 32 0,0
13.09.2019 19:00:00 26,4 11,3 28,8 18,7 18,0 9 5 21 11 NNW 1027,4 35 43 0,0
13.09.2019 18:00:00 27,4 11,4 31,5 18,4 17,9 13 7 27 15 N 1026,7 27 60 0,0
13.09.2019 17:00:00 27,7 12,1 33,2 18,2 17,9 16 9 25 13 N 1026,8 18 60 0,0
13.09.2019 16:00:00 27,8 12,2 35,4 17,9 17,9 9 5 19 11 NW 1027,3 31 60 0,0
13.09.2019 15:00:00 27,3 11,7 34,3 17,7 17,9 10 5 19 10 N 1027,9 20 60 0,0
13.09.2019 14:00:00 26,4 11,7 31,6 17,7 17,9 15 8 27 15 N 1028,7 29 60 0,0
13.09.2019 13:00:00 25,5 11,6 29,5 17,6 18,0 12 6 25 14 N 1028,9 27 60 0,0
13.09.2019 12:00:00 24,6 11,9 28,3 17,7 17,9 13 7 22 12 NNE 1029,2 31 60 0,0
13.09.2019 11:00:00 22,4 12,9 23,9 17,8 18,0 4 2 11 6 W 1029,9 31 60 0,0
13.09.2019 10:00:00 18,2 12,0 19,5 17,9 17,9 3 2 8 4 WNW 1031,2 27 60 0,0
13.09.2019 09:00:00 14,6 11,6 12,4 18,0 17,9 4 2 10 5 NNW 1031,8 19 60 0,0
13.09.2019 08:00:00 10,7 9,5 6,4 18,1 18,0 6 3 10 6 E 1031,9 17 24 0,0
13.09.2019 07:00:00 9,8 8,6 6,5 18,2 18,0 6 4 11 6 N 1032,3 20 0 0,0
13.09.2019 06:00:00 9,9 8,3 6,8 18,4 18,0 3 1 12 6 WSW 1031,9 23 0 0,0
13.09.2019 05:00:00 10,6 8,4 6,1 18,5 18,0 8 4 14 8 NE 1031,4 25 0 0,0
13.09.2019 04:00:00 11,0 9,1 7,4 18,6 18,0 11 6 14 8 ESE 1031,5 27 0 0,0
13.09.2019 03:00:00 10,7 8,6 7,8 18,7 18,0 8 4 12 6 E 1031,7 29 0 0,0
13.09.2019 02:00:00 11,7 8,9 7,5 18,8 18,0 9 5 12 7 ESE 1031,4 28 0 0,0
13.09.2019 01:00:00 12,4 9,2 8,0 18,9 18,0 8 4 10 5 ESE 1031,4 26 0 0,0
13.09.2019 00:00:00 12,4 8,5 8,7 18,9 18,0 8 4 11 6 E 1031,6 30 0 0,0
12.09.2019 23:00:00 14,1 9,3 10,3 18,9 18,0 8 5 11 6 E 1031,5 32 0 0,0
12.09.2019 22:00:00 15,4 9,3 11,4 18,8 18,0 6 4 10 5 ESE 1031,2 32 0 0,0
12.09.2019 21:00:00 18,2 8,7 13,5 18,7 18,0 3 2 14 7 S 1030,5 34 0 0,0
12.09.2019 20:00:00 20,8 9,1 17,9 18,4 18,0 10 5 20 11 N 1029,6 40 34 0,0
12.09.2019 19:00:00 24,1 8,1 25,7 18,2 18,0 16 9 26 14 NNW 1029,1 20 40 0,0
12.09.2019 18:00:00 25,2 6,4 29,3 18,0 18,0 16 9 27 15 NNW 1028,8 37 60 0,0
12.09.2019 17:00:00 25,8 7,4 31,2 17,7 18,0 15 8 27 15 NNW 1028,8 20 60 0,0
12.09.2019 16:00:00 25,5 8,5 31,2 17,5 18,0 13 7 27 15 N 1029,0 17 60 0,0
12.09.2019 15:00:00 25,2 8,6 31,2 17,3 18,0 14 7 23 13 NNW 1029,2 16 60 0,0
12.09.2019 14:00:00 24,3 9,1 30,2 17,2 18,0 10 5 22 12 NE 1029,8 41 60 0,0
12.09.2019 13:00:00 23,2 8,8 28,0 17,2 18,0 13 7 23 12 NNW 1030,2 44 60 0,0
12.09.2019 12:00:00 22,5 10,0 25,1 17,2 18,0 16 9 29 16 ENE 1030,5 20 60 0,0
12.09.2019 11:00:00 20,8 9,7 22,9 17,3 18,0 16 8 31 17 NNE 1030,7 20 60 0,0
12.09.2019 10:00:00 18,4 10,5 18,6 17,4 18,0 6 4 14 8 E 1030,4 24 60 0,0
12.09.2019 09:00:00 13,8 10,4 10,7 17,6 18,0 4 2 12 6 N 1030,5 29 60 0,0
12.09.2019 08:00:00 9,1 7,7 4,8 17,7 18,0 6 3 12 7 E 1030,8 20 26 0,0
12.09.2019 07:00:00 7,0 5,6 4,2 17,9 18,0 8 4 11 6 E 1030,7 18 0 0,0
12.09.2019 06:00:00 8,3 6,4 5,0 18,0 18,0 9 5 13 7 E 1030,1 20 0 0,0

tt = temperature
td = dewpoint
tt 5cm = temperature 5cm
tt -20cm = temperature -20cm
tt -100cm = temperature -100cm
ff = wind speed
fx = gusts
dd = wind direction
ppp = reduced air pressure
vv = visibility
sd = sunshine duration
rr = precipitation

Next stations